This is the latest recevied weather packets stored in our database for station/object W8CEN. If no packets are shown the sender has not sent any weather packets the latest 10 day(s).
| Time | Temp. | Humidity | Pressure | Rain* | Wind** | Luminosity | Snow |
|---|---|---|---|---|---|---|---|
| 1777505426 | 8.89° C | 92% | 989.9 hPa | 1.78 mm | - | 8 W/m² | - |
| 1777505122 | 8.89° C | 93% | 990 hPa | 0 mm | - | 19 W/m² | - |
| 1777504820 | 8.89° C | 93% | 989.9 hPa | 0 mm | - | 13 W/m² | - |
| 1777504516 | 8.89° C | 93% | 990 hPa | 1.27 mm | - | 7 W/m² | - |
| 1777504212 | 8.89° C | 93% | 989.9 hPa | 1.27 mm | - | 8 W/m² | - |
| 1777503908 | 8.89° C | 93% | 989.7 hPa | 0 mm | - | 11 W/m² | - |
| 1777503604 | 8.89° C | 93% | 989.8 hPa | 0 mm | - | 12 W/m² | - |
| 1777503301 | 8.89° C | 93% | 989.8 hPa | 0 mm | - | 15 W/m² | - |
| 1777502997 | 8.89° C | 92% | 989.6 hPa | 0 mm | - | 12 W/m² | - |
| 1777502695 | 8.89° C | 92% | 989.6 hPa | 0 mm | - | 15 W/m² | - |
| 1777502391 | 9.44° C | 92% | 989.7 hPa | 0 mm | - | 26 W/m² | - |
| 1777502088 | 9.44° C | 91% | 989.7 hPa | 0 mm | - | 25 W/m² | - |
| 1777501785 | 9.44° C | 90% | 989.7 hPa | 0 mm | - | 27 W/m² | - |
| 1777501483 | 9.44° C | 89% | 989.7 hPa | 0 mm | - | 22 W/m² | - |
| 1777501179 | 10° C | 88% | 989.8 hPa | 0 mm | - | 26 W/m² | - |
| 1777500878 | 10° C | 87% | 989.7 hPa | 0 mm | - | 24 W/m² | - |
| 1777500575 | 10° C | 86% | 989.7 hPa | 0 mm | - | 34 W/m² | - |
| 1777500271 | 10° C | 84% | 989.7 hPa | 0 mm | - | 29 W/m² | - |
| 1777499967 | 10° C | 84% | 989.7 hPa | 0 mm | - | 20 W/m² | - |
| 1777499665 | 10° C | 84% | 989.5 hPa | 0 mm | - | 22 W/m² | - |
| 1777499361 | 10° C | 83% | 989.5 hPa | 0 mm | - | 26 W/m² | - |
| 1777499060 | 10° C | 83% | 989.5 hPa | 0 mm | - | 34 W/m² | - |
| 1777498755 | 10.56° C | 82% | 989.4 hPa | 0 mm | - | 38 W/m² | - |
| 1777498452 | 10.56° C | 81% | 989.3 hPa | 0 mm | - | 57 W/m² | - |
| 1777498149 | 10.56° C | 82% | 989.2 hPa | 0 mm | - | 55 W/m² | - |
* Rain latest hour (hover to see other rain measurements)
** Current wind speed in m/s (hover to see current wind gust speed)